Location: Unspecified
(40.9447°N, 78.9903°W)
Time: 22:11:38
(UTC-04:00)

Cosmos 2058 - Pass Details

Date: 27 July 2021
Orbit: 560 x 584 km, 82.5° (Epoch: 28 September)

Event Time Altitude Azimuth Distance (km) Brightness Sun altitude
Rises 21:56:24 0° 206° (SSW) 2,771 6.3 -13.4°
Reaches altitude 10° 21:58:41 10° 214° (SW) 1,882 5.5 -13.7°
Maximum altitude 22:02:33 37° 283° (WNW) 913 4.5 -14.3°
Drops below altitude 10° 22:06:28 10° 351° (N) 1,907 6.3 -14.8°
Sets 22:08:49 0° 360° (N) 2,814 7.1 -15.1°
